Vancouver, WA
on Friday, February 15, 2013

Friday
Previous Day Next Day
Daily Summary
 ActualAverageRecord
Temperature
Mean Temperature °F 43°F  
Max Temperature 60°F 52°F 64°F (1902)
Min Temperature 38°F 35°F 17°F (1936)
Degree Days
Heating Degree Days 16    
Month to date heating degree days 322  
Since 1 July heating degree days 2745  
Cooling Degree Days 0    
Month to date cooling degree days 0  
Year to date cooling degree days 0  
Moisture
Dew Point 39°F   
Average Humidity 76    
Maximum Humidity 100    
Minimum Humidity 51    
Precipitation
Precipitation 0.00 in 0.12 in 1.93 in (1901)
Month to date precipitation 0.20 2.40  
Year to date precipitation 3.60 7.90  
Snow
Snow 0.00 in in in ()
Month to date snowfall 0.0  
Snow Depth 0.00 in   
Wind
Wind Speed 2 mph   
Max Wind Speed 10 mph   
Max Gust Speed 14 mph   
Visibility 7 miles   
Events Fog   

Key: T is trace of precipitation, MM is missing value
Source: NWS Daily Summary
Time(PST)TemperatureDew PointHumidity Pressure Visibility Wind DirectionWind SpeedGust SpeedPrecipitationEvents Conditions
12:53 AM 41.0°F 39.0°F 93% 30.51 in 8.0 miles Calm Calm - N/A   Mostly Cloudy
1:53 AM 41.0°F 39.0°F 93% 30.50 in 7.0 miles Calm Calm - N/A   Overcast
2:10 AM 41.0°F 39.2°F 93% 30.49 in 6.0 miles Calm Calm - N/A   Overcast
2:13 AM 41.0°F 39.2°F 93% 30.49 in 2.0 miles Calm Calm - N/A   Overcast
2:15 AM 39.2°F 39.2°F 100% 30.49 in 1.0 miles Calm Calm - N/A   Overcast
2:22 AM 41.0°F 39.2°F 93% 30.49 in 0.5 miles Calm Calm - 0.01 in Fog Fog
2:32 AM 41.0°F 39.2°F 93% 30.49 in 0.2 miles Calm Calm - 0.01 in Fog Fog
2:48 AM 39.2°F 39.2°F 100% 30.48 in 0.5 miles Calm Calm - 0.01 in Fog Fog
2:53 AM 39.0°F 37.9°F 96% 30.48 in 0.5 miles Calm Calm - 0.01 in Fog Fog
3:01 AM 37.4°F 37.4°F 100% 30.48 in 0.2 miles Calm Calm - N/A Fog Fog
3:20 AM 37.4°F 37.4°F 100% 30.47 in 0.2 miles Calm Calm - N/A Fog Fog
3:38 AM 39.2°F 37.4°F 93% 30.47 in 0.5 miles Calm Calm - N/A Fog Fog
3:43 AM 39.2°F 37.4°F 93% 30.46 in 1.8 miles Calm Calm - N/A   Overcast
3:53 AM 37.9°F 37.0°F 97% 30.46 in 0.8 miles Calm Calm - N/A   Overcast
4:04 AM 39.2°F 37.4°F 93% 30.46 in 1.8 miles Calm Calm - N/A   Overcast
4:07 AM 39.2°F 37.4°F 93% 30.45 in 3.0 miles Calm Calm - N/A   Overcast
4:26 AM 39.2°F 39.2°F 100% 30.45 in 7.0 miles Calm Calm - N/A   Overcast
4:53 AM 39.9°F 39.0°F 97% 30.45 in 10.0 miles Calm Calm - N/A   Overcast
5:53 AM 42.1°F 39.9°F 92% 30.43 in 10.0 miles Calm Calm - N/A   Overcast
6:53 AM 43.0°F 39.9°F 89% 30.42 in 10.0 miles NE 4.6 mph - N/A   Overcast
7:53 AM 39.9°F 37.9°F 93% 30.41 in 10.0 miles Calm Calm - N/A   Mostly Cloudy
8:46 AM 42.8°F 39.2°F 87% 30.41 in 10.0 miles Calm Calm - N/A   Scattered Clouds
8:53 AM 43.0°F 39.9°F 89% 30.41 in 10.0 miles Calm Calm - N/A   Partly Cloudy
9:16 AM 44.6°F 39.2°F 81% 30.41 in 10.0 miles Calm Calm - N/A   Mostly Cloudy
9:44 AM 44.6°F 39.2°F 81% 30.40 in 10.0 miles South 3.5 mph - N/A   Scattered Clouds
9:53 AM 44.1°F 39.9°F 85% 30.40 in 10.0 miles South 3.5 mph - N/A   Partly Cloudy
10:53 AM 48.9°F 41.0°F 74% 30.38 in 10.0 miles Calm Calm - N/A   Clear
11:53 AM 52.0°F 42.1°F 69% 30.35 in 10.0 miles Calm Calm - N/A   Clear
12:53 PM 55.0°F 42.1°F 62% 30.31 in 10.0 miles WNW 6.9 mph - N/A   Clear
1:53 PM 57.9°F 43.0°F 58% 30.27 in 10.0 miles West 5.8 mph - N/A   Clear
2:53 PM 59.0°F 43.0°F 55% 30.24 in 10.0 miles WSW 5.8 mph - N/A   Clear
4:53 PM 59.0°F 43.0°F 55% 30.21 in 10.0 miles Calm Calm - N/A   Clear
5:53 PM 55.0°F 41.0°F 59% 30.20 in 10.0 miles Calm Calm - N/A   Clear
6:53 PM 50.0°F 39.9°F 68% 30.21 in 10.0 miles Calm Calm - N/A   Clear
7:53 PM 48.0°F 39.0°F 71% 30.21 in 10.0 miles ESE 4.6 mph - N/A   Clear
8:53 PM 50.0°F 39.9°F 68% 30.22 in 10.0 miles ESE 8.1 mph - N/A   Clear
9:53 PM 48.9°F 39.0°F 69% 30.24 in 10.0 miles East 5.8 mph - N/A   Clear
10:53 PM 48.0°F 39.9°F 74% 30.24 in 10.0 miles ESE 5.8 mph - N/A   Clear
11:53 PM 46.9°F 39.9°F 77% 30.23 in 10.0 miles East 3.5 mph - N/A   Clear
Moon Phase
Feb. 15 Feb. 17 Feb. 25 Mar. 04 Mar. 11
Sunrise:07:12 AM (PST) Moon Rise:09:31 AM (PST)2/15
Sunset:05:38 PM (PST) Moon Set:No Moon Set/

Copyright © 2014 The Weather Underground, Inc.